Home   Weather   Wichita   Past weeks
Flag for USA

Past Weather in Wichita, Kansas, USA — Yesterday and Last 2 Weeks

Now
58 °F

Scattered clouds.


Feels Like: 54 °F
Forecast: 64 / 47 °F
Wind: 17 mph from North

Location: Wichita Mid-Continent Airport

Current Time: Mar 24, 2019 at 12:29:37 pm

Latest Report: Mar 24, 2019 at 11:53 am


Visibility: 10 mi

Pressure: 30.01 "Hg

Humidity: 60%

Dew Point: 44 °F

Location of WichitaLocation

Past Weather in Wichita — Graph

°F

Wichita Temperature Yesterday

Maximum temperature yesterday: 62 °F (at 5:53 pm)
Minimum temperature yesterday: 48 °F (at 3:53 am)
Average temperature yesterday: 55 °F

High & Low Weather Summary for the Past Weeks

 TemperatureHumidityPressure
High69 °F (Mar 19, 1:53 pm)97% (Mar 24, 7:53 am)30.46 "Hg (Mar 24, 7:53 am)
Low28 °F (Mar 16, 6:53 am)21% (Mar 21, 5:53 pm)29.04 "Hg (Mar 13, 6:53 pm)
Average49 °F60%30.08 "Hg
* Reported Mar 9 10:08 am — Mar 24 10:53 am, Wichita. Weather by CustomWeather, © 2019

Note: Actual official high and low records may vary slightly from our data, if they occured in-between our weather recording intervals... More about our weather records

Advertising

Wichita Weather History for the Previous 24 Hours

Scroll right to see more
 ConditionsComfort  
Time TempWeatherWind HumidityBarometerVisibility
10:53 am
Sun, Mar 24
55 °FPassing clouds.12 mph64%30.01 "Hg10 mi
9:53 am51 °FPassing clouds.16 mph71%30.01 "Hg10 mi
8:53 am50 °FPassing clouds.12 mph77%30.00 "Hg10 mi
7:53 am43 °FPassing clouds.3 mph97%29.98 "Hg10 mi
6:53 am46 °FClear.5 mph89%29.97 "Hg10 mi
5:53 am48 °FFog.3 mph93%29.96 "Hg6 mi
4:53 am50 °FFog.6 mph93%29.95 "Hg6 mi
4:26 am52 °FFog.7 mph93%29.96 "Hg3 mi
4:07 am52 °FFog.6 mph93%29.96 "Hg3 mi
3:53 am52 °FFog.5 mph93%29.95 "Hg1 mi
2:53 am52 °FFog.No wind93%29.95 "Hg1 mi
2:18 am52 °FFog.6 mph93%29.97 "Hg1 mi
1:53 am52 °FFog.9 mph93%29.96 "Hg1 mi
12:53 am52 °FFog.14 mph93%29.94 "Hg2 mi
12:28 am52 °FFog.14 mph93%29.96 "Hg2 mi
11:53 pm
Sat, Mar 23
52 °FFog.16 mph93%29.95 "Hg4 mi
10:53 pm53 °FFog.14 mph89%29.94 "Hg6 mi
9:53 pm53 °FLow clouds.20 mph89%29.93 "Hg7 mi
9:05 pm53 °FLow clouds.18 mph83%29.95 "Hg10 mi
7:53 pm56 °FPassing clouds.13 mph75%29.93 "Hg10 mi
6:53 pm60 °FScattered clouds.12 mph67%29.91 "Hg10 mi
6:23 pm60 °FScattered clouds.12 mph67%29.92 "Hg9 mi
5:53 pm62 °FPartly sunny.13 mph62%29.91 "Hg10 mi
4:53 pm60 °FOvercast.9 mph62%29.93 "Hg10 mi
4:33 pm61 °FPartly sunny.15 mph60%29.93 "Hg10 mi
3:53 pm61 °FScattered clouds.14 mph58%29.92 "Hg10 mi
2:53 pm58 °FMore clouds than sun.12 mph65%29.94 "Hg10 mi
2:38 pm58 °FMostly cloudy.13 mph65%29.95 "Hg10 mi
2:00 pm59 °FOvercast.14 mph62%29.97 "Hg10 mi
1:20 pm58 °FMostly cloudy.16 mph65%29.98 "Hg10 mi
12:53 pm58 °FPartly sunny.16 mph67%29.97 "Hg10 mi
12:27 pm58 °FMostly cloudy.14 mph67%29.98 "Hg10 mi
Weather by CustomWeather, © 2019

See weather overview